Home > Weather > Mexicali > Past weeks

Flag for Mexico Weather for the Past 2 Weeks in Mexicali, Baja California, Mexico

Now
66 °F

Clear.


Feels Like: 66 °F
Forecast: 57 / 87 °F
Wind: 15 mph from West

Location: Imperial County Airport

Current Time: Apr 28, 2016 at 9:44:10 PM

Latest Report: Apr 28, 2016 at 8:53 PM


Visibility: 10 mi

Pressure: 29.76 "Hg

Humidity: 43%

Dew Point: 43 °F

Location of MexicaliLocation

Historic Weather in Mexicali — Graph

°F

Mexicali Temperature Yesterday

Maximum temperature yesterday: 88 °F (at 2:53 PM)
Minimum temperature yesterday: 58 °F (at 4:53 AM)
Average temperature yesterday: 72 °F

High & Low Weather Summary for the Past Weeks

 TemperatureHumidityPressure
High98 °F (Apr 20, 1:53 PM)57% (Apr 26, 5:53 AM)30.06 "Hg (Apr 26, 5:53 AM)
Low52 °F (Apr 26, 5:53 AM)7% (Apr 16, 3:53 PM)29.60 "Hg (Apr 27, 4:53 PM)
Average75 °F25%29.82 "Hg
* Reported Apr 13 7:53 PM — Apr 28 7:53 PM, Mexicali, Weather by CustomWeather, © 2016

Note: Actual official high and low records may vary slightly from our data, if they occured in-between our weather recording intervals... More about our weather records

Advertising

Mexicali Weather History for the Previous 24 Hours

Scroll right to see more
 ConditionsComfort  
Time TempWeatherWind HumidityBarometerVisibility
7:53 PM
Thu, Apr 28
69 °FSunny.14 mph36%29.74 "Hg10 mi
6:53 PM73 °FSunny.17 mph30%29.72 "Hg10 mi
5:53 PM76 °FSunny.18 mph27%29.71 "Hg10 mi
4:53 PM77 °FSunny.21 mph26%29.71 "Hg10 mi
3:53 PM77 °FSunny.23 mph26%29.71 "Hg10 mi
2:53 PM77 °FPartly sunny.21 mph26%29.72 "Hg10 mi
1:53 PM76 °FPartly sunny.14 mph25%29.74 "Hg10 mi
12:53 PM75 °FPassing clouds.22 mph26%29.74 "Hg10 mi
11:53 AM73 °FSunny.26 mph28%29.75 "Hg10 mi
10:53 AM71 °FSunny.22 mph29%29.75 "Hg10 mi
9:53 AM69 °FSunny.26 mph32%29.75 "Hg10 mi
8:53 AM66 °FSunny.26 mph37%29.75 "Hg10 mi
7:53 AM63 °FSunny.21 mph40%29.75 "Hg10 mi
6:53 AM59 °FClear.22 mph46%29.73 "Hg10 mi
5:53 AM58 °FClear.18 mph43%29.72 "Hg10 mi
4:53 AM59 °FClear.24 mph39%29.69 "Hg10 mi
3:53 AM60 °FClear.24 mph36%29.69 "Hg10 mi
2:53 AM61 °FClear.28 mph35%29.68 "Hg10 mi
1:53 AM63 °FClear.30 mph37%29.67 "Hg10 mi
12:53 AM63 °FClear.24 mph41%29.67 "Hg10 mi
11:53 PM
Wed, Apr 27
65 °FClear.16 mph42%29.67 "Hg10 mi
10:53 PM65 °FClear.23 mph44%29.66 "Hg10 mi
9:53 PM67 °FClear.22 mph37%29.68 "Hg10 mi
Weather by CustomWeather, © 2016

See weather overviewHow to use our weather pages